This is the latest recevied weather packets stored in our database for station/object EA2FBA-10. If no packets are shown the sender has not sent any weather packets the latest 10 day(s).
| Time | Temp. | Humidity | Pressure | Rain* | Wind** | Luminosity | Snow |
|---|---|---|---|---|---|---|---|
| 1787833491 | 25.56° C | 47% | 948.1 hPa | - | - | - | - |
| 1787832600 | 26.11° C | 46% | 948.1 hPa | - | - | - | - |
| 1787832591 | 26.11° C | 46% | 948.1 hPa | - | - | - | - |
| 1787831700 | 26.11° C | 45% | 948.1 hPa | - | - | - | - |
| 1787831691 | 26.11° C | 45% | 948.1 hPa | - | - | - | - |
| 1787830800 | 25.56° C | 45% | 948.5 hPa | - | - | - | - |
| 1787830790 | 25.56° C | 45% | 948.5 hPa | - | - | - | - |
| 1787829900 | 25° C | 47% | 948.7 hPa | - | - | - | - |
| 1787829890 | 25° C | 47% | 948.7 hPa | - | - | - | - |
| 1787829000 | 25° C | 46% | 948.1 hPa | - | - | - | - |
| 1787828991 | 25° C | 46% | 948.1 hPa | - | - | - | - |
| 1787828100 | 25.56° C | 46% | 948.3 hPa | - | - | - | - |
| 1787828090 | 25.56° C | 46% | 948.3 hPa | - | - | - | - |
| 1787827190 | 24.44° C | 48% | 948.8 hPa | - | - | - | - |
| 1787826300 | 24.44° C | 47% | 949 hPa | - | - | - | - |
| 1787826290 | 24.44° C | 47% | 949 hPa | - | - | - | - |
| 1787825399 | 25° C | 47% | 948.8 hPa | - | - | - | - |
| 1787825390 | 25° C | 47% | 948.8 hPa | - | - | - | - |
| 1787824499 | 24.44° C | 47% | 949 hPa | - | - | - | - |
| 1787824490 | 24.44° C | 47% | 949 hPa | - | - | - | - |
| 1787823599 | 23.89° C | 49% | 949.2 hPa | - | - | - | - |
| 1787823590 | 23.89° C | 49% | 949.2 hPa | - | - | - | - |
| 1787822699 | 23.89° C | 49% | 949 hPa | - | - | - | - |
| 1787822689 | 23.89° C | 49% | 949 hPa | - | - | - | - |
| 1787821799 | 23.89° C | 50% | 948.9 hPa | - | - | - | - |
* Rain since midnight (hover to see other rain measurements)
** Current wind speed in m/s (hover to see current wind gust speed)